Location: Newark
(34.1333°N, 7.9667°W)
Time: 11:26:05
(UTC+00:00)

Transit 2A - Pass Details

Date: 21 June 2021
Orbit: 598 x 960 km, 66.7° (Epoch: 29 July)

Event Time Altitude Azimuth Distance (km) Brightness Sun altitude
Rises 14:46:49 0° 158° (SSE) 2,893 8.9 59.1°
Reaches altitude 10° 14:50:39 10° 124° (SE) 1,950 8.0 58.3°
Maximum altitude 14:52:02 11° 106° (ESE) 1,854 7.8 58.1°
Drops below altitude 10° 14:53:25 10° 87° (E) 1,938 7.9 57.8°
Sets 14:57:10 0° 53° (NE) 2,844 8.7 57.0°
